Time,TemperatureF,DewpointF,PressureIn,WindDirection,WindDirectionDegrees,WindSpeedMPH,WindSpeedGustMPH,Humidity,HourlyPrecipIn,Conditions,Clouds,dailyrainin,SolarRadiationWatts/m^2,SoftwareType,DateUTC
2013-03-27 00:22:00,21.0,18.0,-100.00,North,-999,6.0,7.0,87,0.00,,,0.01,0.000000,,2013-03-27 06:22:00,
2013-03-27 01:22:00,27.0,26.0,-100.00,North,-999,4.0,6.0,97,-99.99,,,0.01,0.000000,,2013-03-27 07:22:00,
2013-03-27 01:32:00,27.0,26.0,-100.00,North,-999,4.0,6.0,97,-99.99,,,0.01,0.000000,,2013-03-27 07:32:00,
2013-03-27 01:42:00,27.0,26.0,-100.00,North,-999,4.0,6.0,97,-99.99,,,0.01,0.000000,,2013-03-27 07:42:00,
2013-03-27 01:53:00,27.0,26.0,-100.00,North,-999,4.0,6.0,97,-99.99,,,0.01,0.000000,,2013-03-27 07:53:00,
2013-03-27 02:22:00,23.0,22.0,-100.00,North,-999,2.0,6.0,94,0.00,,,0.01,0.000000,,2013-03-27 08:22:00,
2013-03-27 02:32:00,23.0,22.0,-100.00,North,-999,2.0,6.0,94,0.00,,,0.01,0.000000,,2013-03-27 08:32:00,
2013-03-27 02:43:00,23.0,22.0,-100.00,North,-999,2.0,6.0,94,0.00,,,0.01,0.000000,,2013-03-27 08:43:00,
2013-03-27 02:52:00,23.0,22.0,-100.00,North,-999,2.0,6.0,94,0.00,,,0.01,0.000000,,2013-03-27 08:52:00,
2013-03-27 03:22:00,24.0,22.0,-100.00,North,-999,3.0,7.0,90,0.00,,,0.01,0.000000,,2013-03-27 09:22:00,
2013-03-27 03:32:00,24.0,22.0,-100.00,North,-999,3.0,7.0,90,0.00,,,0.01,0.000000,,2013-03-27 09:32:00,
2013-03-27 03:42:00,24.0,22.0,-100.00,North,-999,3.0,7.0,90,0.00,,,0.01,0.000000,,2013-03-27 09:42:00,
2013-03-27 03:52:00,24.0,22.0,-100.00,North,-999,3.0,7.0,90,0.00,,,0.01,0.000000,,2013-03-27 09:52:00,
2013-03-27 04:22:00,24.0,22.0,-100.00,North,-999,3.0,4.0,92,0.00,,,0.01,0.000000,,2013-03-27 10:22:00,
2013-03-27 04:32:00,24.0,22.0,-100.00,North,-999,3.0,4.0,92,0.00,,,0.01,0.000000,,2013-03-27 10:32:00,
2013-03-27 04:42:00,24.0,22.0,-100.00,North,-999,3.0,4.0,92,0.00,,,0.01,0.000000,,2013-03-27 10:42:00,
2013-03-27 04:52:00,24.0,22.0,-100.00,North,-999,3.0,4.0,92,0.00,,,0.01,0.000000,,2013-03-27 10:52:00,
2013-03-27 05:22:00,24.0,22.0,-100.00,North,-999,1.0,3.0,93,0.00,,,0.01,0.000000,,2013-03-27 11:22:00,
2013-03-27 05:32:00,24.0,22.0,-100.00,North,-999,1.0,3.0,93,0.00,,,0.01,0.000000,,2013-03-27 11:32:00,
2013-03-27 05:42:00,24.0,22.0,-100.00,North,-999,1.0,3.0,93,0.00,,,0.01,0.000000,,2013-03-27 11:42:00,
2013-03-27 05:52:00,24.0,22.0,-100.00,North,-999,1.0,3.0,93,0.00,,,0.01,0.000000,,2013-03-27 11:52:00,
2013-03-27 06:22:00,25.0,23.0,-100.00,North,-999,0.0,2.0,92,0.00,,,0.01,0.000000,,2013-03-27 12:22:00,
2013-03-27 06:32:00,25.0,23.0,-100.00,North,-999,0.0,2.0,92,0.00,,,0.01,0.000000,,2013-03-27 12:32:00,
2013-03-27 06:42:00,25.0,23.0,-100.00,North,-999,0.0,2.0,92,0.00,,,0.01,0.000000,,2013-03-27 12:42:00,
2013-03-27 06:51:00,25.0,23.0,-100.00,North,-999,0.0,2.0,92,0.00,,,0.01,0.000000,,2013-03-27 12:51:00,
2013-03-27 07:22:00,25.0,23.0,-100.00,North,-999,0.0,4.0,92,0.00,,,0.01,0.000000,,2013-03-27 13:22:00,
2013-03-27 07:32:00,25.0,23.0,-100.00,North,-999,0.0,4.0,92,0.00,,,0.01,0.000000,,2013-03-27 13:32:00,
2013-03-27 07:42:00,25.0,23.0,-100.00,North,-999,0.0,4.0,92,0.00,,,0.01,0.000000,,2013-03-27 13:42:00,
2013-03-27 07:52:00,25.0,23.0,-100.00,North,-999,0.0,4.0,92,0.00,,,0.01,0.000000,,2013-03-27 13:52:00,
2013-03-27 08:22:00,26.0,24.0,-100.00,North,-999,1.0,3.0,91,0.00,,,0.01,14.000000,,2013-03-27 14:22:00,
2013-03-27 08:32:00,26.0,24.0,-100.00,North,-999,1.0,3.0,91,0.00,,,0.01,14.000000,,2013-03-27 14:32:00,
2013-03-27 08:42:00,26.0,24.0,-100.00,North,-999,1.0,3.0,91,0.00,,,0.01,14.000000,,2013-03-27 14:42:00,
2013-03-27 08:52:00,26.0,24.0,-100.00,North,-999,1.0,3.0,91,0.00,,,0.01,14.000000,,2013-03-27 14:52:00,
2013-03-27 09:22:00,29.0,25.0,-100.00,North,-999,3.0,4.0,83,0.00,,,0.01,67.000000,,2013-03-27 15:22:00,
2013-03-27 09:32:00,29.0,25.0,-100.00,North,-999,3.0,4.0,83,0.00,,,0.01,67.000000,,2013-03-27 15:32:00,
2013-03-27 09:42:00,29.0,25.0,-100.00,North,-999,3.0,4.0,83,0.00,,,0.01,67.000000,,2013-03-27 15:42:00,
2013-03-27 09:52:00,29.0,25.0,-100.00,North,-999,3.0,4.0,83,0.00,,,0.01,67.000000,,2013-03-27 15:52:00,
2013-03-27 12:22:00,38.0,30.0,-100.00,North,-999,3.0,3.0,72,-99.99,,,-99.99,480.000000,,2013-03-27 18:22:00,
2013-03-27 12:32:00,38.0,30.0,-100.00,North,-999,3.0,3.0,72,-99.99,,,-99.99,480.000000,,2013-03-27 18:32:00,
2013-03-27 12:42:00,38.0,30.0,-100.00,North,-999,3.0,3.0,72,-99.99,,,-99.99,480.000000,,2013-03-27 18:42:00,
2013-03-27 12:52:00,38.0,30.0,-100.00,North,-999,3.0,3.0,72,-99.99,,,-99.99,480.000000,,2013-03-27 18:52:00,
2013-03-27 13:42:00,42.0,30.0,-100.00,North,-999,4.0,5.0,61,0.00,,,0.00,652.000000,,2013-03-27 19:42:00,
2013-03-27 13:52:00,42.0,30.0,-100.00,North,-999,4.0,5.0,61,0.00,,,0.00,652.000000,,2013-03-27 19:52:00,
2013-03-27 14:22:00,42.0,30.0,-100.00,North,-999,3.0,5.0,61,0.00,,,0.00,624.000000,,2013-03-27 20:22:00,
2013-03-27 14:32:00,42.0,30.0,-100.00,North,-999,3.0,5.0,61,0.00,,,0.00,624.000000,,2013-03-27 20:32:00,
2013-03-27 14:42:00,42.0,30.0,-100.00,North,-999,3.0,5.0,61,0.00,,,0.00,624.000000,,2013-03-27 20:42:00,
2013-03-27 14:52:00,42.0,30.0,-100.00,North,-999,3.0,5.0,61,0.00,,,0.00,624.000000,,2013-03-27 20:52:00,
2013-03-27 15:22:00,39.0,31.0,-100.00,North,-999,7.0,14.0,72,0.00,,,-99.99,654.000000,,2013-03-27 21:22:00,
2013-03-27 15:32:00,39.0,31.0,-100.00,North,-999,7.0,14.0,72,0.00,,,-99.99,654.000000,,2013-03-27 21:32:00,
2013-03-27 15:43:00,39.0,31.0,-100.00,North,-999,7.0,14.0,72,0.00,,,-99.99,654.000000,,2013-03-27 21:43:00,
2013-03-27 15:52:00,39.0,31.0,-100.00,North,-999,7.0,14.0,72,0.00,,,-99.99,654.000000,,2013-03-27 21:52:00,
2013-03-27 16:23:00,44.0,30.0,-100.00,North,-999,2.0,11.0,57,0.00,,,0.00,607.000000,,2013-03-27 22:23:00,
2013-03-27 16:32:00,44.0,30.0,-100.00,North,-999,2.0,11.0,57,0.00,,,0.00,607.000000,,2013-03-27 22:32:00,
2013-03-27 16:42:00,44.0,30.0,-100.00,North,-999,2.0,11.0,57,0.00,,,0.00,607.000000,,2013-03-27 22:42:00,
2013-03-27 16:52:00,44.0,30.0,-100.00,North,-999,2.0,11.0,57,0.00,,,0.00,607.000000,,2013-03-27 22:52:00,
2013-03-27 17:22:00,38.0,31.0,-100.00,North,-999,6.0,9.0,75,0.00,,,0.00,267.000000,,2013-03-27 23:22:00,
2013-03-27 17:32:00,38.0,31.0,-100.00,North,-999,6.0,9.0,75,0.00,,,0.00,267.000000,,2013-03-27 23:32:00,
2013-03-27 17:42:00,38.0,31.0,-100.00,North,-999,6.0,9.0,75,0.00,,,0.00,267.000000,,2013-03-27 23:42:00,
2013-03-27 17:52:00,38.0,31.0,-100.00,North,-999,6.0,9.0,75,0.00,,,0.00,267.000000,,2013-03-27 23:52:00,